Hourly Data Report for February 10, 2019

TORONTO CITY
ONTARIO
Current Station Operator: ECCC - MSC

43°40'00.000" N
79°24'00.000" W
112.50 m
6158355
71508
XTO

Download Data

Hourly Data (February 2019)
Hourly Data Report for February 10, 2019
TIME
LST
Temp Definition
°C
Dew Point Definition
°C
Rel Hum Definition
%
Precip. Amount Definition
mm

Wind Dir Definition
10's deg

Wind Spd Definition
km/h
Visibility Definition
km
Stn Press Definition
kPa
Hmdx Definition


Wind Chill Definition


Weather Definition


00:00 -7.3 -12.6 65 0.0 LegendMM LegendMM   102.59     LegendNANA
01:00 -7.5 -12.5 67 0.0 LegendMM LegendMM   102.56     LegendNANA
02:00 -7.5 -12.8 66 0.0 LegendMM LegendMM   102.51     LegendNANA
03:00 -7.4 -13.0 64 0.0 LegendMM LegendMM   102.51     LegendNANA
04:00 -7.4 -12.9 65 0.0 LegendMM LegendMM   102.51     LegendNANA
05:00 -7.6 -12.8 66 0.0 LegendMM LegendMM   102.47     LegendNANA
06:00 -7.6 -12.4 68 0.0 LegendMM LegendMM   102.42     LegendNANA
07:00 -7.7 -12.2 70 0.0 LegendMM LegendMM   102.36     LegendNANA
08:00 -7.5 -11.7 72 0.0 LegendMM LegendMM   102.32     LegendNANA
09:00 -6.5 -11.6 67 0.0 LegendMM LegendMM   102.32     LegendNANA
10:00 -5.3 -11.5 61 0.0 LegendMM LegendMM   102.24     LegendNANA
11:00 -4.3 -12.1 54 0.0 LegendMM LegendMM   102.18     LegendNANA
12:00 -3.2 -10.7 56 0.0 LegendMM LegendMM   102.17     LegendNANA
13:00 -3.7 -10.7 58 0.0 LegendMM LegendMM   102.08     LegendNANA
14:00 -3.6 -10.6 58 0.0 LegendMM LegendMM   101.88     LegendNANA
15:00 -2.6 -11.5 51 0.0 LegendMM LegendMM   101.79     LegendNANA
16:00 -3.3 -10.4 58 0.0 LegendMM LegendMM   101.74     LegendNANA
17:00 -3.1 -10.1 58 0.0 LegendMM LegendMM   101.65     LegendNANA
18:00 -3.3 -9.6 62 0.0 LegendMM LegendMM   101.64     LegendNANA
19:00 -3.4 -9.8 61 0.0 LegendMM LegendMM   101.60     LegendNANA
20:00 -3.2 -9.7 60 0.0 LegendMM LegendMM   101.53     LegendNANA
21:00 -3.9 -7.7 75 0.0 LegendMM LegendMM   101.51     LegendNANA
22:00 -4.1 -6.0 87 0.3 LegendMM LegendMM   101.43     LegendNANA
23:00 -4.3 -6.4 85 0.0 LegendMM LegendMM   101.38     LegendNANA

Notes on Data Quality.

Legend

  • E = Estimated
  • M = Missing
  • NA = Not Available*
  • [empty] = Indicates an unobserved value
Date modified: